Flag for Italy Weather past 2 weeks in Cagliari, Italy

Now
43 °F

Passing clouds.


Feels Like: 40 °F
Forecast: 45 / 55 °F
Wind: 5 mph from Northwest

Location: Cagliari / Elmas

Current Time: Dec 27, 2014 at 7:46:12 AM

Latest Report: Dec 27, 2014 at 6:50 AM


Visibility: N/A

Pressure: 30.15 "Hg

Humidity: 100%

Dew point: 43 °F

Location of CagliariLocation

Historic Weather in Cagliari — Graph

°F

Cagliari temperature yesterday

Maximum temperature yesterday: 59 °F (at 12:20 AM)
Minimum temperature yesterday: 48 °F (at 11:20 PM)
Average temperature yesterday: 56 °F

Past Weeks' High & Low Weather Summary

 TemperatureHumidityPressure
High64 °F (Dec 15, 10:50 AM)100% (Dec 12, 11:50 PM)30.51 "Hg (Dec 12, 11:50 PM)
Low39 °F (Dec 22, 7:50 AM)59% (Dec 12, 12:20 PM)29.77 "Hg (Dec 16, 5:20 PM)
Average54 °F87%30.19 "Hg
* Reported Dec 12 6:20 AM — Dec 27 6:20 AM, Cagliari, Weather by CustomWeather, © 2014

Note: Actual official high and low records may vary slightly from our data, if they occured in-between our weather recording intervals... More about our weather records

Advertising

Cagliari weather history for previous 24 hours

 ConditionsComfort  
Time TempWeatherWind HumidityBarometerVisibility
6:20 AM
Dec 27
45 °FLight rain. Passing clouds.6 mph93%30.15 "HgN/A
5:50 AM43 °FPassing clouds.5 mph93%30.15 "HgN/A
5:20 AM43 °FClear.5 mph93%30.15 "Hg10 mi
4:20 AM41 °FClear.8 mph100%30.18 "Hg10 mi
3:50 AM45 °FClear.7 mph93%30.18 "Hg10 mi
3:20 AM45 °FClear.7 mph93%30.18 "Hg10 mi
2:50 AM45 °FClear.8 mph93%30.18 "Hg10 mi
1:50 AM45 °FClear.5 mph93%30.18 "Hg10 mi
1:20 AM46 °FClear.7 mph87%30.18 "Hg10 mi
12:50 AM46 °FClear.7 mph87%30.18 "Hg10 mi
12:20 AM48 °FClear.6 mph87%30.18 "Hg10 mi
11:50 PM
Dec 26
50 °FClear.3 mph82%30.18 "Hg10 mi
11:20 PM48 °FPassing clouds.5 mph87%30.18 "HgN/A
10:50 PM50 °FClear.2 mph82%30.18 "Hg10 mi
10:20 PM50 °FClear.6 mph82%30.18 "Hg10 mi
9:50 PM50 °FPassing clouds.3 mph82%30.18 "HgN/A
9:20 PM50 °FClear.5 mph82%30.18 "Hg10 mi
8:50 PM52 °FPassing clouds.5 mph82%30.18 "HgN/A
8:20 PM52 °FClear.7 mph88%30.15 "Hg10 mi
7:50 PM54 °FPassing clouds.6 mph82%30.15 "HgN/A
7:20 PM54 °FPassing clouds.6 mph82%30.15 "HgN/A
6:50 PM54 °FPassing clouds.6 mph82%30.15 "HgN/A
6:20 PM54 °FPassing clouds.6 mph82%30.15 "HgN/A
5:50 PM54 °FPassing clouds.7 mph77%30.15 "HgN/A
5:20 PM55 °FPassing clouds.8 mph77%30.12 "HgN/A
4:50 PM57 °FPassing clouds.7 mph72%30.12 "HgN/A
4:20 PM59 °FPassing clouds.9 mph68%30.12 "HgN/A
3:50 PM59 °FPassing clouds.10 mph72%30.12 "HgN/A
3:20 PM59 °FPassing clouds.10 mph72%30.09 "HgN/A
2:50 PM59 °FSunny.13 mph68%30.09 "Hg10 mi
2:20 PM59 °FSunny.10 mph68%30.09 "Hg10 mi
1:50 PM59 °FPassing clouds.8 mph68%30.09 "HgN/A
1:20 PM59 °FPassing clouds.13 mph63%30.12 "HgN/A
12:50 PM59 °FPassing clouds.14 mph63%30.12 "HgN/A
12:20 PM59 °FPassing clouds.14 mph63%30.12 "HgN/A
11:50 AM57 °FPassing clouds.13 mph72%30.12 "HgN/A
11:20 AM57 °FScattered clouds.16 mph67%30.12 "HgN/A
10:50 AM57 °FScattered clouds.16 mph67%30.15 "HgN/A
10:20 AM55 °FPassing clouds.18 mph67%30.15 "HgN/A
9:50 AM55 °FPassing clouds.15 mph72%30.15 "HgN/A
9:20 AM54 °FPassing clouds.8 mph77%30.12 "HgN/A
8:50 AM54 °FPassing clouds.9 mph77%30.12 "HgN/A
8:20 AM54 °FPassing clouds.6 mph77%30.12 "HgN/A
7:50 AM54 °FPassing clouds.12 mph77%30.12 "HgN/A
7:20 AM55 °FPassing clouds.14 mph72%30.12 "HgN/A
Weather by CustomWeather, © 2014

See weather overviewHow to use our weather pages